Regional Weather Roundup
Issued by NWS Newport/Morehead, NC

Current Version | Previous Version | Graphics & Text | Print | Product List | Glossary Off
Versions: 1 2 3 4 5 6 7 8 9 10 11 12 13 14 15 16 17 18 19 20 21 22 23 24 25 26 27 28 29 30 31 32 33 34 35 36 37 38 39 40 41 42 43 44 45 46 47 48 49 50
000 ASUS42 KMHX 310425 RWRMHX WEATHER ROUNDUP FOR EASTERN NORTH CAROLINA NATIONAL WEATHER SERVICE NEWPORT/MOREHEAD CITY NC 1200 AM EDT MON AUG 31 2015 NOTE: "FAIR" INDICATES FEW OR NO CLOUDS BELOW 12,000 FEET WITH NO SIGNIFICANT WEATHER AND/OR OBSTRUCTIONS TO VISIBILITY NCZ015>017-031-032-045>047-102-103-310500- NORTH COAST CITY SKY/WX TMP DP RH WIND PRES REMARKS EDENTON CLOUDY 75 69 80 SW5 30.13S ELIZABETH CITY CLOUDY 75 72 90 S5 30.13S KITTY HAWK CLOUDY 76 71 85 CALM 30.12S MANTEO CLOUDY 76 73 89 SW5 30.13S $$ NCZ045>047-081-094-103-104-310500- CENTRAL COAST CITY SKY/WX TMP DP RH WIND PRES REMARKS FRISCO CLOUDY 76 70 82 CALM 30.13S SWANQUARTER NOT AVBL $$ NCZ095-097-098-100-101-310500- SOUTHERN COAST CITY SKY/WX TMP DP RH WIND PRES REMARKS BEAUFORT CLOUDY 75 71 87 NE5 30.11F CEDAR ISLAND NOT AVBL JACKSONVILLE CLOUDY 73 69 87 CALM 30.11F PINEY ISLAND CLOUDY N/A N/A N/A S3 30.13S WILMINGTON LGT RAIN 73 71 93 CALM 30.11F $$ NCZ011>013-027>030-043-044-078>080-089-090>093-098-310500- COASTAL PLAIN CITY SKY/WX TMP DP RH WIND PRES REMARKS AHOSKIE CLOUDY 71 66 84 CALM 30.13S CLINTON CLOUDY 70 70 98 CALM 30.12F ELIZABETHTOWN CLOUDY 71 70 98 CALM 30.11F GOLDSBORO CLOUDY 73 68 83 CALM 30.11F GREENVILLE CLOUDY 73 68 83 CALM 30.14S HAVELOCK CLOUDY 75 69 81 E3 30.13F KENANSVILLE N/A 69 68 94 CALM 30.13S KINSTON CLOUDY 73 69 87 CALM 30.13F NEW BERN CLOUDY 73 68 84 CALM 30.14S RICHLANDS CLOUDY 72 66 83 CALM 30.12S ROCKY MOUNT CLOUDY 74 65 73 CALM 30.13S WASHINGTON CLOUDY 74 68 80 SW3 30.14R WHITEVILLE CLOUDY 69 68 95 CALM 30.10F $$ AMZ130-135-150-152-154-156-158-170-250-252-270-ANZ085-086-088-633-658-670-310500- MARINE OBSERVATIONS STATION/POSITION TIME TEMP WIND PRES WAVE SWELL AIR SEA DIR/SP/G HT/PER HT/PER (UTC) (F) (DEG/KT/KT) (MB) (FT/S) (FT/S) CHESAPEAKE LIGHT 0400 77 200/ 10/ 11 1020.8 64 E VA BEACH 0350 77 78 200/ 4/ 4 1019.8 4/11 3/11 DUCK NOT AVBL 2 E DUCK 0311 79 N/A 3/10 2/11 OREGON INLET NOT AVBL 13E OREGON INLT 0400 78 N/A 3/11 2/11 HATTERAS CG NOT AVBL DIAMOND BUOY 0350 79 84 270/ 2/ 4 1020.6 3/10 3/10 CAPE LOOKOUT 0400 78 CALM / 1 1019.6 BEAUFORT LAB NOT AVBL 30 SE NEW RVR IN 0308 80 81 160/ 2/ 4 1020.5 30 SE NEW RVR IN 0325 81 N/A 3/10 2/11 27 SE WRIGHTSVLE 0400 76 82 130/ 10/ 14 N/A 5 SE WRIGHTSVLE 0308 79 82 120/ 8/ 12 1019.5 225 S CAPE HAT 0350 84 84 180/ 8/ 10 1020.6 4/ 8 3/ 8 41 SE CHARLESTON 0350 80 84 110/ 14/ 17 1017.5 5/11 3/11 $$

USA.gov is the U.S. government's official web portal to all federal, state and local government web resources and services.